Location: Kuppenheim
(48.8299°N, 8.2568°E)
Time: 14:22:30
(UTC+00:00)

USA 229 - Pass Details

Date: 20 June 2021
Orbit: 956 x 1256 km, 63.5° (Epoch: 25 July)

Event Time Altitude Azimuth Distance (km) Brightness Sun altitude
Exits shadow 00:22:33 23° 216° (SW) 1,992 4.6 -16.7°
Maximum altitude 00:26:52 85° 129° (SE) 1,036 3.6 -16.6°
Drops below altitude 10° 00:33:47 10° 42° (NE) 2,933 7.0 -16.3°
Sets 00:36:33 0° 43° (NE) 3,938 7.8 -16.2°
